When you browse on this site, cookies collect data to enhance your experience and personalize the content and advertising you see.
Visit our Privacy Policy to learn more. By continuing to use the site, you agree to this use of cookies and data.
  • In Czech Republic
  • List of Countries
  • For 7 days
  • Water Temperature
  • Satellite Maps
  • Weather Map
  • Weather Widgets
  • user-avatar
    Login

    Hourly Weather Novoe Selo

    Today, 21 July, Sunday

    Time Temperature Precipitation Wind Pressure Humidity
    00:00 +14°C° 0 mm 1 mps 746 mmHg 78%
    01:00 +14°C° 0 mm 1 mps 746 mmHg 78%
    02:00 +14°C° 0 mm 1 mps 746 mmHg 81%
    03:00 +14°C° 0 mm 1 mps 746 mmHg 81%
    04:00 +14°C° 0 mm 1 mps 746 mmHg 81%
    05:00 +14°C° 0 mm 1 mps 746 mmHg 81%
    06:00 +15°C° 0 mm 1 mps 747 mmHg 77%
    07:00 +18°C° 0 mm 1 mps 747 mmHg 73%
    08:00 +21°C° 0 mm 1 mps 747 mmHg 69%
    09:00 +22°C° 0 mm 1 mps 747 mmHg 65%
    10:00 +23°C° 0 mm 1 mps 747 mmHg 62%
    11:00 +24°C° 0 mm 2 mps 747 mmHg 58%
    12:00 +24°C° 0 mm 1 mps 747 mmHg 57%
    13:00 +25°C° 0 mm 1 mps 747 mmHg 55%
    14:00 +25°C° 0 mm 1 mps 747 mmHg 54%
    15:00 +25°C° 0 mm 1 mps 746 mmHg 56%
    16:00 +25°C° 0 mm 1 mps 746 mmHg 59%
    17:00 +25°C° 0 mm 2 mps 746 mmHg 62%
    18:00 +23°C° 0 mm 1 mps 746 mmHg 67%
    19:00 +21°C° 0 mm 1 mps 746 mmHg 71%
    20:00 +17°C° 0 mm 0 mps 746 mmHg 76%
    21:00 +16°C° 0 mm 0 mps 746 mmHg 77%
    22:00 +18°C° 0 mm 1 mps 746 mmHg 78%
    23:00 +16°C° 0 mm 1 mps 746 mmHg 79%

    Tomorrow, 22 July, Monday

    Time Temperature Precipitation Wind Pressure Humidity
    00:00 +16°C° 0 mm 1 mps 746 mmHg 80%
    01:00 +16°C° 0 mm 1 mps 746 mmHg 81%
    02:00 +15°C° 0 mm 1 mps 746 mmHg 81%
    03:00 +15°C° 0 mm 1 mps 746 mmHg 82%
    04:00 +15°C° 0 mm 1 mps 746 mmHg 83%
    05:00 +16°C° 0 mm 2 mps 746 mmHg 84%
    06:00 +17°C° 0 mm 2 mps 745 mmHg 82%
    07:00 +19°C° 0 mm 2 mps 745 mmHg 79%
    08:00 +20°C° 0 mm 2 mps 745 mmHg 77%
    09:00 +21°C° 0.7 mm 2 mps 745 mmHg 77%
    10:00 +22°C° 0.7 mm 3 mps 745 mmHg 76%
    11:00 +24°C° 0.7 mm 3 mps 745 mmHg 76%
    12:00 +23°C° 0.8 mm 2 mps 744 mmHg 79%
    13:00 +21°C° 0.8 mm 2 mps 744 mmHg 83%
    14:00 +20°C° 0.8 mm 2 mps 744 mmHg 86%
    15:00 +19°C° 0.7 mm 2 mps 744 mmHg 89%
    16:00 +20°C° 0.7 mm 1 mps 744 mmHg 92%
    17:00 +19°C° 0.7 mm 1 mps 744 mmHg 95%
    18:00 +19°C° 0.4 mm 1 mps 743 mmHg 95%
    19:00 +18°C° 0.4 mm 1 mps 743 mmHg 96%
    20:00 +18°C° 0.4 mm 1 mps 743 mmHg 96%
    21:00 +16°C° 0 mm 1 mps 743 mmHg 96%
    22:00 +16°C° 0 mm 1 mps 743 mmHg 97%
    23:00 +15°C° 0 mm 1 mps 743 mmHg 97%

    Day after tomorrow, 23 July, Tuesday

    Time Temperature Precipitation Wind Pressure Humidity
    00:00 +15°C° 0 mm 1 mps 743 mmHg 97%
    01:00 +15°C° 0 mm 1 mps 742 mmHg 97%
    02:00 +14°C° 0 mm 1 mps 742 mmHg 97%
    03:00 +14°C° 0 mm 1 mps 742 mmHg 97%
    04:00 +14°C° 0 mm 1 mps 742 mmHg 97%
    05:00 +14°C° 0 mm 1 mps 742 mmHg 97%
    06:00 +15°C° 0 mm 2 mps 742 mmHg 95%
    07:00 +16°C° 0 mm 2 mps 742 mmHg 93%
    08:00 +17°C° 0 mm 2 mps 742 mmHg 91%
    09:00 +18°C° 0.1 mm 2 mps 743 mmHg 89%
    10:00 +19°C° 0.1 mm 2 mps 743 mmHg 87%
    11:00 +19°C° 0.1 mm 2 mps 743 mmHg 84%
    12:00 +20°C° 0.3 mm 2 mps 743 mmHg 83%
    13:00 +20°C° 0.3 mm 3 mps 743 mmHg 82%
    14:00 +20°C° 0.3 mm 3 mps 743 mmHg 81%
    15:00 +20°C° 0.2 mm 3 mps 743 mmHg 80%
    16:00 +21°C° 0.2 mm 3 mps 743 mmHg 80%
    17:00 +21°C° 0.2 mm 3 mps 743 mmHg 79%
    18:00 +20°C° 0 mm 2 mps 743 mmHg 83%
    19:00 +18°C° 0 mm 2 mps 743 mmHg 88%
    20:00 +17°C° 0 mm 2 mps 742 mmHg 93%
    21:00 +16°C° 0 mm 2 mps 743 mmHg 93%
    22:00 +16°C° 0 mm 2 mps 743 mmHg 93%
    23:00 +15°C° 0 mm 2 mps 743 mmHg 94%

    24 July, Wednesday

    Time Temperature Precipitation Wind Pressure Humidity
    00:00 +15°C° 0 mm 2 mps 743 mmHg 94%
    01:00 +15°C° 0 mm 2 mps 743 mmHg 95%
    02:00 +15°C° 0 mm 2 mps 743 mmHg 95%
    03:00 +14°C° 0 mm 3 mps 743 mmHg 95%
    04:00 +13°C° 0 mm 3 mps 743 mmHg 95%
    05:00 +13°C° 0 mm 3 mps 743 mmHg 96%
    06:00 +16°C° 0 mm 3 mps 743 mmHg 91%
    07:00 +17°C° 0 mm 3 mps 744 mmHg 87%
    08:00 +19°C° 0 mm 4 mps 744 mmHg 83%
    09:00 +20°C° 0 mm 4 mps 744 mmHg 78%
    10:00 +22°C° 0 mm 4 mps 744 mmHg 74%
    11:00 +23°C° 0 mm 4 mps 744 mmHg 69%
    12:00 +23°C° 0.1 mm 5 mps 744 mmHg 67%
    13:00 +25°C° 0.1 mm 5 mps 744 mmHg 66%
    14:00 +25°C° 0.1 mm 5 mps 744 mmHg 64%
    15:00 +25°C° 0.1 mm 4 mps 744 mmHg 67%
    16:00 +25°C° 0.1 mm 4 mps 745 mmHg 69%
    17:00 +25°C° 0.1 mm 3 mps 745 mmHg 72%
    18:00 +22°C° 0 mm 3 mps 745 mmHg 75%
    19:00 +20°C° 0 mm 3 mps 745 mmHg 78%
    20:00 +19°C° 0 mm 3 mps 745 mmHg 81%
    21:00 +18°C° 0 mm 3 mps 745 mmHg 82%
    22:00 +17°C° 0 mm 3 mps 746 mmHg 83%
    23:00 +16°C° 0 mm 3 mps 746 mmHg 84%

    25 July, Thursday

    Time Temperature Precipitation Wind Pressure Humidity
    00:00 +16°C° 0 mm 3 mps 746 mmHg 86%
    01:00 +14°C° 0 mm 3 mps 746 mmHg 87%
    02:00 +14°C° 0 mm 3 mps 746 mmHg 88%
    03:00 +15°C° 0 mm 2 mps 746 mmHg 89%
    04:00 +15°C° 0 mm 2 mps 747 mmHg 89%
    05:00 +15°C° 0 mm 2 mps 747 mmHg 89%
    06:00 +16°C° 0 mm 3 mps 747 mmHg 85%
    07:00 +18°C° 0 mm 3 mps 747 mmHg 81%
    08:00 +20°C° 0 mm 3 mps 747 mmHg 77%
    09:00 +21°C° 0 mm 3 mps 748 mmHg 73%
    10:00 +22°C° 0 mm 4 mps 748 mmHg 68%
    11:00 +25°C° 0 mm 4 mps 748 mmHg 63%
    12:00 +25°C° 0 mm 4 mps 747 mmHg 62%
    13:00 +25°C° 0 mm 4 mps 747 mmHg 61%
    14:00 +26°C° 0 mm 4 mps 747 mmHg 60%
    15:00 +25°C° 0 mm 4 mps 747 mmHg 63%
    16:00 +25°C° 0 mm 3 mps 747 mmHg 66%
    17:00 +25°C° 0 mm 3 mps 747 mmHg 70%
    18:00 +22°C° 0 mm 3 mps 747 mmHg 73%
    19:00 +21°C° 0 mm 3 mps 747 mmHg 76%
    20:00 +19°C° 0 mm 2 mps 747 mmHg 80%
    21:00 +18°C° 0 mm 2 mps 747 mmHg 80%
    22:00 +17°C° 0 mm 2 mps 747 mmHg 81%
    23:00 +17°C° 0 mm 2 mps 747 mmHg 81%

    26 July, Friday

    Time Temperature Precipitation Wind Pressure Humidity
    00:00 +16°C° 0 mm 2 mps 747 mmHg 81%
    01:00 +16°C° 0 mm 3 mps 747 mmHg 82%
    02:00 +16°C° 0 mm 3 mps 747 mmHg 82%
    03:00 +16°C° 0 mm 3 mps 747 mmHg 84%
    04:00 +14°C° 0 mm 3 mps 747 mmHg 86%
    05:00 +14°C° 0 mm 3 mps 747 mmHg 87%
    06:00 +17°C° 0 mm 3 mps 747 mmHg 85%
    07:00 +19°C° 0 mm 3 mps 747 mmHg 82%
    08:00 +21°C° 0 mm 3 mps 748 mmHg 79%
    09:00 +22°C° 0 mm 3 mps 747 mmHg 76%
    10:00 +24°C° 0 mm 3 mps 747 mmHg 72%
    11:00 +26°C° 0 mm 3 mps 747 mmHg 68%
    12:00 +26°C° 0.3 mm 3 mps 747 mmHg 69%
    13:00 +26°C° 0.3 mm 3 mps 747 mmHg 70%
    14:00 +26°C° 0.3 mm 3 mps 746 mmHg 72%
    15:00 +26°C° 0.3 mm 3 mps 746 mmHg 72%
    16:00 +26°C° 0.3 mm 3 mps 746 mmHg 73%
    17:00 +26°C° 0.3 mm 3 mps 746 mmHg 74%
    18:00 +24°C° 0.1 mm 3 mps 746 mmHg 77%
    19:00 +21°C° 0.1 mm 3 mps 746 mmHg 80%
    20:00 +20°C° 0.1 mm 3 mps 746 mmHg 82%
    21:00 +19°C° 0 mm 2 mps 746 mmHg 84%
    22:00 +18°C° 0 mm 2 mps 746 mmHg 85%
    23:00 +17°C° 0 mm 2 mps 746 mmHg 86%
    Show more